![]() |
EMODnet Physics ERDDAP
Easier access to scientific data |
log in|
Brought to you by EMODnet Physics |
| Dataset Title: | NDBC - Collection of dew point temperature (DEWT) TimeSeries - IN SITU MultiPointTimeSeriesObservation
|
| Institution: | NDBC (Dataset ID: TS_DEWT_NDBC) |
| Information: | Summary
| License
| FGDC
| ISO 19115
| Metadata
| Background
| Subset
| Data Access Form
| Make a graph
|
| Name | Last modified | Size | Description | |
|---|---|---|---|---|
| Parent Directory | - | - | ||
| PILA2_TS_DEWT_012000.nc | 27-Oct-2024 17:13 | 1262403 | ||
| PILA2_TS_DEWT_012001.nc | 27-Oct-2024 17:13 | 4549847 | ||
| PILA2_TS_DEWT_012002.nc | 27-Oct-2024 17:13 | 432404 | ||
| PILA2_TS_DEWT_012004.nc | 27-Oct-2024 17:13 | 450855 | ||
| PILA2_TS_DEWT_012005.nc | 27-Oct-2024 17:13 | 450721 | ||
| PILA2_TS_DEWT_012006.nc | 27-Oct-2024 17:13 | 450359 | ||
| PILA2_TS_DEWT_012007.nc | 27-Oct-2024 17:13 | 448695 | ||
| PILA2_TS_DEWT_012008.nc | 27-Oct-2024 17:13 | 451356 | ||
| PILA2_TS_DEWT_012009.nc | 27-Oct-2024 17:13 | 449549 | ||
| PILA2_TS_DEWT_012010.nc | 27-Oct-2024 17:13 | 437828 | ||
| PILA2_TS_DEWT_012011.nc | 27-Oct-2024 17:13 | 449944 | ||
| PILA2_TS_DEWT_012013.nc | 27-Oct-2024 17:13 | 450366 | ||
| PILA2_TS_DEWT_012014.nc | 27-Oct-2024 17:13 | 440381 | ||
| PILA2_TS_DEWT_012015.nc | 27-Oct-2024 17:13 | 450408 | ||
| PILA2_TS_DEWT_012016.nc | 27-Oct-2024 17:13 | 450008 | ||
| PILA2_TS_DEWT_012017.nc | 27-Oct-2024 17:13 | 450776 | ||
| PILA2_TS_DEWT_012018.nc | 27-Oct-2024 17:14 | 1240392 | ||
| PILA2_TS_DEWT_012019.nc | 27-Oct-2024 17:14 | 442726 | ||
| PILA2_TS_DEWT_012020.nc | 27-Oct-2024 17:14 | 5748104 | ||
| PILA2_TS_DEWT_012021.nc | 27-Oct-2024 17:14 | 433134 | ||
| PILA2_TS_DEWT_012022.nc | 27-Oct-2024 17:14 | 449399 | ||
| PILA2_TS_DEWT_012023.nc | 27-Oct-2024 17:14 | 436080 | ||
| PILA2_TS_DEWT_012024.nc | 27-Oct-2024 17:14 | 448854 | ||
| PILA2_TS_DEWT_012026.nc | 02-Feb-2026 18:49 | 447982 | ||
| PILA2_TS_DEWT_022000.nc | 27-Oct-2024 17:14 | 449914 | ||
| PILA2_TS_DEWT_022001.nc | 27-Oct-2024 17:14 | 448908 | ||
| PILA2_TS_DEWT_022002.nc | 27-Oct-2024 17:14 | 449180 | ||
| PILA2_TS_DEWT_022004.nc | 27-Oct-2024 17:14 | 441288 | ||
| PILA2_TS_DEWT_022005.nc | 27-Oct-2024 17:14 | 448238 | ||
| PILA2_TS_DEWT_022006.nc | 27-Oct-2024 17:14 | 449183 | ||
| PILA2_TS_DEWT_022007.nc | 27-Oct-2024 17:14 | 428586 | ||
| PILA2_TS_DEWT_022008.nc | 27-Oct-2024 17:14 | 433305 | ||
| PILA2_TS_DEWT_022009.nc | 27-Oct-2024 17:14 | 448749 | ||
| PILA2_TS_DEWT_022010.nc | 27-Oct-2024 17:15 | 449755 | ||
| PILA2_TS_DEWT_022011.nc | 27-Oct-2024 17:15 | 448667 | ||
| PILA2_TS_DEWT_022013.nc | 27-Oct-2024 17:15 | 1109878 | ||
| PILA2_TS_DEWT_022014.nc | 27-Oct-2024 17:15 | 4040593 | ||
| PILA2_TS_DEWT_022015.nc | 27-Oct-2024 17:15 | 4597078 | ||
| PILA2_TS_DEWT_022016.nc | 27-Oct-2024 17:15 | 450817 | ||
| PILA2_TS_DEWT_022017.nc | 27-Oct-2024 17:15 | 448613 | ||
| PILA2_TS_DEWT_022018.nc | 27-Oct-2024 17:15 | 449987 | ||
| PILA2_TS_DEWT_022020.nc | 27-Oct-2024 17:15 | 451335 | ||
| PILA2_TS_DEWT_022021.nc | 27-Oct-2024 17:15 | 436327 | ||
| PILA2_TS_DEWT_022022.nc | 27-Oct-2024 17:15 | 450792 | ||
| PILA2_TS_DEWT_022023.nc | 27-Oct-2024 17:15 | 450821 | ||
| PILA2_TS_DEWT_022024.nc | 16-Sep-2024 16:51 | 451112 | ||
| PILA2_TS_DEWT_022026.nc | 01-Mar-2026 08:30 | 449632 | ||
| PILA2_TS_DEWT_032000.nc | 27-Oct-2024 17:16 | 437877 | ||
| PILA2_TS_DEWT_032001.nc | 27-Oct-2024 17:16 | 451273 | ||
| PILA2_TS_DEWT_032002.nc | 27-Oct-2024 17:16 | 450866 | ||
| PILA2_TS_DEWT_032004.nc | 27-Oct-2024 17:16 | 450905 | ||
| PILA2_TS_DEWT_032005.nc | 27-Oct-2024 17:16 | 1267112 | ||
| PILA2_TS_DEWT_032006.nc | 27-Oct-2024 17:16 | 2664399 | ||
| PILA2_TS_DEWT_032008.nc | 27-Oct-2024 17:16 | 448925 | ||
| PILA2_TS_DEWT_032009.nc | 27-Oct-2024 17:16 | 448897 | ||
| PILA2_TS_DEWT_032010.nc | 27-Oct-2024 17:16 | 450290 | ||
| PILA2_TS_DEWT_032011.nc | 27-Oct-2024 17:16 | 449555 | ||
| PILA2_TS_DEWT_032013.nc | 27-Oct-2024 17:16 | 449226 | ||
| PILA2_TS_DEWT_032014.nc | 27-Oct-2024 17:16 | 450344 | ||
| PILA2_TS_DEWT_032015.nc | 27-Oct-2024 17:16 | 450013 | ||
| PILA2_TS_DEWT_032016.nc | 27-Oct-2024 17:16 | 450181 | ||
| PILA2_TS_DEWT_032017.nc | 27-Oct-2024 17:17 | 450447 | ||
| PILA2_TS_DEWT_032018.nc | 27-Oct-2024 17:17 | 450290 | ||
| PILA2_TS_DEWT_032019.nc | 27-Oct-2024 17:17 | 449447 | ||
| PILA2_TS_DEWT_032020.nc | 27-Oct-2024 17:17 | 450362 | ||
| PILA2_TS_DEWT_032021.nc | 27-Oct-2024 17:17 | 1109672 | ||
| PILA2_TS_DEWT_032022.nc | 27-Oct-2024 17:17 | 5458758 | ||
| PILA2_TS_DEWT_032023.nc | 27-Oct-2024 17:17 | 451127 | ||
| PILA2_TS_DEWT_032026.nc | 21-Mar-2026 10:00 | 451506 | ||
| PILA2_TS_DEWT_042000.nc | 27-Oct-2024 17:17 | 451035 | ||
| PILA2_TS_DEWT_042001.nc | 27-Oct-2024 17:17 | 450604 | ||
| PILA2_TS_DEWT_042002.nc | 27-Oct-2024 17:17 | 451785 | ||
| PILA2_TS_DEWT_042004.nc | 27-Oct-2024 17:17 | 450399 | ||
| PILA2_TS_DEWT_042006.nc | 27-Oct-2024 17:17 | 443215 | ||
| PILA2_TS_DEWT_042007.nc | 27-Oct-2024 17:17 | 450058 | ||
| PILA2_TS_DEWT_042008.nc | 27-Oct-2024 17:17 | 451942 | ||
| PILA2_TS_DEWT_042009.nc | 27-Oct-2024 17:17 | 450998 | ||
| PILA2_TS_DEWT_042010.nc | 27-Oct-2024 17:17 | 450406 | ||
| PILA2_TS_DEWT_042011.nc | 27-Oct-2024 17:17 | 450505 | ||
| PILA2_TS_DEWT_042012.nc | 27-Oct-2024 17:17 | 1267904 | ||
| PILA2_TS_DEWT_042013.nc | 27-Oct-2024 17:17 | 5453495 | ||
| PILA2_TS_DEWT_042014.nc | 27-Oct-2024 17:18 | 450578 | ||
| PILA2_TS_DEWT_042015.nc | 27-Oct-2024 17:18 | 450352 | ||
| PILA2_TS_DEWT_042016.nc | 27-Oct-2024 17:18 | 433944 | ||
| PILA2_TS_DEWT_042017.nc | 27-Oct-2024 17:18 | 450214 | ||
| PILA2_TS_DEWT_042018.nc | 27-Oct-2024 17:18 | 450972 | ||
| PILA2_TS_DEWT_042019.nc | 27-Oct-2024 17:18 | 450350 | ||
| PILA2_TS_DEWT_042020.nc | 27-Oct-2024 17:18 | 451309 | ||
| PILA2_TS_DEWT_042021.nc | 27-Oct-2024 17:18 | 451047 | ||
| PILA2_TS_DEWT_042022.nc | 27-Oct-2024 17:18 | 450716 | ||
| PILA2_TS_DEWT_042023.nc | 27-Oct-2024 17:18 | 452056 | ||
| PILA2_TS_DEWT_042025.nc | 01-May-2025 06:37 | 447080 | ||
| PILA2_TS_DEWT_052000.nc | 27-Oct-2024 17:18 | 449529 | ||
| PILA2_TS_DEWT_052001.nc | 27-Oct-2024 17:18 | 448990 | ||
| PILA2_TS_DEWT_052002.nc | 27-Oct-2024 17:18 | 448277 | ||
| PILA2_TS_DEWT_052003.nc | 27-Oct-2024 17:18 | 448215 | ||
| PILA2_TS_DEWT_052004.nc | 27-Oct-2024 17:19 | 449017 | ||
| PILA2_TS_DEWT_052005.nc | 27-Oct-2024 17:19 | 448294 | ||
| PILA2_TS_DEWT_052006.nc | 27-Oct-2024 17:19 | 447047 | ||
| PILA2_TS_DEWT_052007.nc | 27-Oct-2024 17:19 | 447427 | ||
| PILA2_TS_DEWT_052008.nc | 27-Oct-2024 17:19 | 449473 | ||
| PILA2_TS_DEWT_052009.nc | 27-Oct-2024 17:19 | 451539 | ||
| PILA2_TS_DEWT_052010.nc | 27-Oct-2024 17:19 | 452118 | ||
| PILA2_TS_DEWT_052011.nc | 27-Oct-2024 17:19 | 451087 | ||
| PILA2_TS_DEWT_052012.nc | 27-Oct-2024 17:19 | 451451 | ||
| PILA2_TS_DEWT_052013.nc | 27-Oct-2024 17:19 | 451038 | ||
| PILA2_TS_DEWT_052014.nc | 27-Oct-2024 17:19 | 451070 | ||
| PILA2_TS_DEWT_052015.nc | 27-Oct-2024 17:19 | 452455 | ||
| PILA2_TS_DEWT_052016.nc | 27-Oct-2024 17:19 | 434800 | ||
| PILA2_TS_DEWT_052017.nc | 27-Oct-2024 17:19 | 451548 | ||
| PILA2_TS_DEWT_052018.nc | 27-Oct-2024 17:19 | 450718 | ||
| PILA2_TS_DEWT_052019.nc | 27-Oct-2024 17:19 | 449280 | ||
| PILA2_TS_DEWT_052020.nc | 27-Oct-2024 17:19 | 450339 | ||
| PILA2_TS_DEWT_052021.nc | 27-Oct-2024 17:20 | 450036 | ||
| PILA2_TS_DEWT_052022.nc | 27-Oct-2024 17:20 | 450393 | ||
| PILA2_TS_DEWT_052023.nc | 27-Oct-2024 17:20 | 449365 | ||
| PILA2_TS_DEWT_052025.nc | 01-Jun-2025 07:20 | 449044 | ||
| PILA2_TS_DEWT_062000.nc | 27-Oct-2024 17:20 | 450067 | ||
| PILA2_TS_DEWT_062001.nc | 27-Oct-2024 17:20 | 449691 | ||
| PILA2_TS_DEWT_062002.nc | 27-Oct-2024 17:20 | 450340 | ||
| PILA2_TS_DEWT_062003.nc | 27-Oct-2024 17:20 | 449877 | ||
| PILA2_TS_DEWT_062004.nc | 27-Oct-2024 17:20 | 450170 | ||
| PILA2_TS_DEWT_062005.nc | 27-Oct-2024 17:20 | 451702 | ||
| PILA2_TS_DEWT_062006.nc | 27-Oct-2024 17:20 | 451261 | ||
| PILA2_TS_DEWT_062007.nc | 27-Oct-2024 17:20 | 450015 | ||
| PILA2_TS_DEWT_062008.nc | 27-Oct-2024 17:20 | 450972 | ||
| PILA2_TS_DEWT_062009.nc | 27-Oct-2024 17:20 | 449973 | ||
| PILA2_TS_DEWT_062010.nc | 27-Oct-2024 17:20 | 449577 | ||
| PILA2_TS_DEWT_062012.nc | 27-Oct-2024 17:20 | 431011 | ||
| PILA2_TS_DEWT_062013.nc | 27-Oct-2024 17:20 | 451024 | ||
| PILA2_TS_DEWT_062014.nc | 27-Oct-2024 17:21 | 448850 | ||
| PILA2_TS_DEWT_062015.nc | 27-Oct-2024 17:21 | 448419 | ||
| PILA2_TS_DEWT_062016.nc | 27-Oct-2024 17:21 | 433966 | ||
| PILA2_TS_DEWT_062017.nc | 27-Oct-2024 17:21 | 441888 | ||
| PILA2_TS_DEWT_062018.nc | 27-Oct-2024 17:21 | 432884 | ||
| PILA2_TS_DEWT_062019.nc | 27-Oct-2024 17:21 | 450124 | ||
| PILA2_TS_DEWT_062020.nc | 27-Oct-2024 17:21 | 449952 | ||
| PILA2_TS_DEWT_062021.nc | 27-Oct-2024 17:21 | 450299 | ||
| PILA2_TS_DEWT_062022.nc | 27-Oct-2024 17:21 | 449394 | ||
| PILA2_TS_DEWT_062023.nc | 27-Oct-2024 17:21 | 450448 | ||
| PILA2_TS_DEWT_062025.nc | 01-Jul-2025 07:42 | 443393 | ||
| PILA2_TS_DEWT_072000.nc | 27-Oct-2024 17:21 | 449366 | ||
| PILA2_TS_DEWT_072001.nc | 27-Oct-2024 17:21 | 449515 | ||
| PILA2_TS_DEWT_072002.nc | 27-Oct-2024 17:21 | 448022 | ||
| PILA2_TS_DEWT_072003.nc | 27-Oct-2024 17:21 | 983599 | ||
| PILA2_TS_DEWT_072004.nc | 27-Oct-2024 17:21 | 437813 | ||
| PILA2_TS_DEWT_072005.nc | 27-Oct-2024 17:21 | 442236 | ||
| PILA2_TS_DEWT_072006.nc | 27-Oct-2024 17:21 | 449083 | ||
| PILA2_TS_DEWT_072007.nc | 27-Oct-2024 17:21 | 450224 | ||
| PILA2_TS_DEWT_072008.nc | 27-Oct-2024 17:22 | 448291 | ||
| PILA2_TS_DEWT_072009.nc | 27-Oct-2024 17:22 | 449920 | ||
| PILA2_TS_DEWT_072010.nc | 27-Oct-2024 17:22 | 450974 | ||
| PILA2_TS_DEWT_072012.nc | 27-Oct-2024 17:22 | 449562 | ||
| PILA2_TS_DEWT_072013.nc | 27-Oct-2024 17:22 | 449740 | ||
| PILA2_TS_DEWT_072014.nc | 27-Oct-2024 17:22 | 450498 | ||
| PILA2_TS_DEWT_072015.nc | 27-Oct-2024 17:22 | 446610 | ||
| PILA2_TS_DEWT_072016.nc | 27-Oct-2024 17:22 | 450926 | ||
| PILA2_TS_DEWT_072017.nc | 27-Oct-2024 17:22 | 450795 | ||
| PILA2_TS_DEWT_072018.nc | 27-Oct-2024 17:22 | 449740 | ||
| PILA2_TS_DEWT_072019.nc | 27-Oct-2024 17:22 | 449505 | ||
| PILA2_TS_DEWT_072020.nc | 27-Oct-2024 17:22 | 449964 | ||
| PILA2_TS_DEWT_072021.nc | 27-Oct-2024 17:22 | 449917 | ||
| PILA2_TS_DEWT_072022.nc | 27-Oct-2024 17:22 | 1259866 | ||
| PILA2_TS_DEWT_072023.nc | 27-Oct-2024 17:22 | 449810 | ||
| PILA2_TS_DEWT_072025.nc | 01-Aug-2025 08:16 | 451170 | ||
| PILA2_TS_DEWT_082000.nc | 27-Oct-2024 17:22 | 451160 | ||
| PILA2_TS_DEWT_082001.nc | 27-Oct-2024 17:22 | 450871 | ||
| PILA2_TS_DEWT_082002.nc | 27-Oct-2024 17:23 | 450298 | ||
| PILA2_TS_DEWT_082003.nc | 27-Oct-2024 17:23 | 445679 | ||
| PILA2_TS_DEWT_082004.nc | 27-Oct-2024 17:23 | 449721 | ||
| PILA2_TS_DEWT_082005.nc | 27-Oct-2024 17:23 | 451402 | ||
| PILA2_TS_DEWT_082006.nc | 27-Oct-2024 17:23 | 449459 | ||
| PILA2_TS_DEWT_082007.nc | 27-Oct-2024 17:23 | 435078 | ||
| PILA2_TS_DEWT_082008.nc | 27-Oct-2024 17:23 | 438255 | ||
| PILA2_TS_DEWT_082009.nc | 27-Oct-2024 17:23 | 450179 | ||
| PILA2_TS_DEWT_082010.nc | 27-Oct-2024 17:23 | 450731 | ||
| PILA2_TS_DEWT_082012.nc | 27-Oct-2024 17:23 | 449774 | ||
| PILA2_TS_DEWT_082013.nc | 27-Oct-2024 17:23 | 449937 | ||
| PILA2_TS_DEWT_082014.nc | 27-Oct-2024 17:23 | 449055 | ||
| PILA2_TS_DEWT_082015.nc | 27-Oct-2024 17:23 | 449905 | ||
| PILA2_TS_DEWT_082016.nc | 27-Oct-2024 17:24 | 449380 | ||
| PILA2_TS_DEWT_082017.nc | 27-Oct-2024 17:24 | 1262243 | ||
| PILA2_TS_DEWT_082018.nc | 27-Oct-2024 17:24 | 448648 | ||
| PILA2_TS_DEWT_082019.nc | 27-Oct-2024 17:24 | 449918 | ||
| PILA2_TS_DEWT_082020.nc | 27-Oct-2024 17:24 | 449879 | ||
| PILA2_TS_DEWT_082021.nc | 27-Oct-2024 17:24 | 449363 | ||
| PILA2_TS_DEWT_082022.nc | 27-Oct-2024 17:24 | 446003 | ||
| PILA2_TS_DEWT_082023.nc | 27-Oct-2024 17:24 | 449920 | ||
| PILA2_TS_DEWT_082025.nc | 01-Sep-2025 09:28 | 449543 | ||
| PILA2_TS_DEWT_092000.nc | 27-Oct-2024 17:24 | 449697 | ||
| PILA2_TS_DEWT_092001.nc | 27-Oct-2024 17:24 | 449281 | ||
| PILA2_TS_DEWT_092002.nc | 27-Oct-2024 17:24 | 450547 | ||
| PILA2_TS_DEWT_092003.nc | 27-Oct-2024 17:24 | 449318 | ||
| PILA2_TS_DEWT_092004.nc | 27-Oct-2024 17:24 | 449167 | ||
| PILA2_TS_DEWT_092005.nc | 27-Oct-2024 17:24 | 448933 | ||
| PILA2_TS_DEWT_092006.nc | 27-Oct-2024 17:25 | 449325 | ||
| PILA2_TS_DEWT_092007.nc | 27-Oct-2024 17:25 | 449568 | ||
| PILA2_TS_DEWT_092008.nc | 27-Oct-2024 17:25 | 448111 | ||
| PILA2_TS_DEWT_092009.nc | 27-Oct-2024 17:25 | 1112244 | ||
| PILA2_TS_DEWT_092010.nc | 27-Oct-2024 17:25 | 450227 | ||
| PILA2_TS_DEWT_092012.nc | 27-Oct-2024 17:25 | 451304 | ||
| PILA2_TS_DEWT_092013.nc | 27-Oct-2024 17:25 | 450266 | ||
| PILA2_TS_DEWT_092014.nc | 27-Oct-2024 17:25 | 443232 | ||
| PILA2_TS_DEWT_092015.nc | 27-Oct-2024 17:25 | 427085 | ||
| PILA2_TS_DEWT_092016.nc | 27-Oct-2024 17:25 | 451572 | ||
| PILA2_TS_DEWT_092017.nc | 27-Oct-2024 17:25 | 451211 | ||
| PILA2_TS_DEWT_092018.nc | 27-Oct-2024 17:25 | 450497 | ||
| PILA2_TS_DEWT_092019.nc | 27-Oct-2024 17:25 | 443233 | ||
| PILA2_TS_DEWT_092020.nc | 27-Oct-2024 17:25 | 450618 | ||
| PILA2_TS_DEWT_092021.nc | 27-Oct-2024 17:25 | 450656 | ||
| PILA2_TS_DEWT_092022.nc | 27-Oct-2024 17:25 | 451385 | ||
| PILA2_TS_DEWT_092023.nc | 27-Oct-2024 17:25 | 450570 | ||
| PILA2_TS_DEWT_092025.nc | 01-Oct-2025 09:51 | 450116 | ||
| PILA2_TS_DEWT_102000.nc | 27-Oct-2024 17:26 | 449826 | ||
| PILA2_TS_DEWT_102001.nc | 27-Oct-2024 17:26 | 430623 | ||
| PILA2_TS_DEWT_102002.nc | 27-Oct-2024 17:26 | 1260632 | ||
| PILA2_TS_DEWT_102003.nc | 27-Oct-2024 17:26 | 449843 | ||
| PILA2_TS_DEWT_102004.nc | 27-Oct-2024 17:26 | 448024 | ||
| PILA2_TS_DEWT_102005.nc | 27-Oct-2024 17:26 | 449193 | ||
| PILA2_TS_DEWT_102006.nc | 27-Oct-2024 17:26 | 450009 | ||
| PILA2_TS_DEWT_102007.nc | 27-Oct-2024 17:26 | 449199 | ||
| PILA2_TS_DEWT_102008.nc | 27-Oct-2024 17:26 | 450430 | ||
| PILA2_TS_DEWT_102009.nc | 27-Oct-2024 17:26 | 450810 | ||
| PILA2_TS_DEWT_102010.nc | 27-Oct-2024 17:26 | 449640 | ||
| PILA2_TS_DEWT_102012.nc | 27-Oct-2024 17:26 | 449614 | ||
| PILA2_TS_DEWT_102013.nc | 27-Oct-2024 17:26 | 449842 | ||
| PILA2_TS_DEWT_102014.nc | 27-Oct-2024 17:27 | 450031 | ||
| PILA2_TS_DEWT_102015.nc | 27-Oct-2024 17:27 | 449639 | ||
| PILA2_TS_DEWT_102016.nc | 27-Oct-2024 17:27 | 450979 | ||
| PILA2_TS_DEWT_102017.nc | 27-Oct-2024 17:27 | 450680 | ||
| PILA2_TS_DEWT_102018.nc | 27-Oct-2024 17:27 | 450666 | ||
| PILA2_TS_DEWT_102019.nc | 27-Oct-2024 17:27 | 450345 | ||
| PILA2_TS_DEWT_102020.nc | 27-Oct-2024 17:27 | 451392 | ||
| PILA2_TS_DEWT_102021.nc | 27-Oct-2024 17:27 | 451514 | ||
| PILA2_TS_DEWT_102022.nc | 27-Oct-2024 17:27 | 451479 | ||
| PILA2_TS_DEWT_102023.nc | 27-Oct-2024 17:27 | 451190 | ||
| PILA2_TS_DEWT_102025.nc | 01-Nov-2025 09:23 | 450666 | ||
| PILA2_TS_DEWT_112001.nc | 27-Oct-2024 17:27 | 450702 | ||
| PILA2_TS_DEWT_112002.nc | 27-Oct-2024 17:27 | 451347 | ||
| PILA2_TS_DEWT_112003.nc | 27-Oct-2024 17:27 | 451465 | ||
| PILA2_TS_DEWT_112004.nc | 27-Oct-2024 17:27 | 429916 | ||
| PILA2_TS_DEWT_112005.nc | 27-Oct-2024 17:28 | 429910 | ||
| PILA2_TS_DEWT_112006.nc | 27-Oct-2024 17:28 | 429924 | ||
| PILA2_TS_DEWT_112007.nc | 27-Oct-2024 17:28 | 450639 | ||
| PILA2_TS_DEWT_112008.nc | 27-Oct-2024 17:28 | 448290 | ||
| PILA2_TS_DEWT_112009.nc | 27-Oct-2024 17:28 | 451385 | ||
| PILA2_TS_DEWT_112010.nc | 27-Oct-2024 17:28 | 450589 | ||
| PILA2_TS_DEWT_112012.nc | 27-Oct-2024 17:28 | 419421 | ||
| PILA2_TS_DEWT_112013.nc | 27-Oct-2024 17:28 | 451195 | ||
| PILA2_TS_DEWT_112014.nc | 27-Oct-2024 17:28 | 437939 | ||
| PILA2_TS_DEWT_112015.nc | 27-Oct-2024 17:28 | 451182 | ||
| PILA2_TS_DEWT_112016.nc | 27-Oct-2024 17:28 | 1266074 | ||
| PILA2_TS_DEWT_112017.nc | 27-Oct-2024 17:28 | 1265955 | ||
| PILA2_TS_DEWT_112018.nc | 27-Oct-2024 17:28 | 1143267 | ||
| PILA2_TS_DEWT_112019.nc | 27-Oct-2024 17:29 | 4874429 | ||
| PILA2_TS_DEWT_112020.nc | 27-Oct-2024 17:29 | 447703 | ||
| PILA2_TS_DEWT_112021.nc | 27-Oct-2024 17:29 | 448104 | ||
| PILA2_TS_DEWT_112022.nc | 27-Oct-2024 17:29 | 447906 | ||
| PILA2_TS_DEWT_112023.nc | 27-Oct-2024 17:29 | 428888 | ||
| PILA2_TS_DEWT_112025.nc | 01-Dec-2025 05:40 | 428870 | ||
| PILA2_TS_DEWT_121999.nc | 27-Oct-2024 17:29 | 429234 | ||
| PILA2_TS_DEWT_122000.nc | 27-Oct-2024 17:29 | 447925 | ||
| PILA2_TS_DEWT_122001.nc | 27-Oct-2024 17:29 | 433809 | ||
| PILA2_TS_DEWT_122002.nc | 27-Oct-2024 17:29 | 448201 | ||
| PILA2_TS_DEWT_122003.nc | 27-Oct-2024 17:29 | 448079 | ||
| PILA2_TS_DEWT_122004.nc | 27-Oct-2024 17:29 | 434904 | ||
| PILA2_TS_DEWT_122005.nc | 27-Oct-2024 17:29 | 428886 | ||
| PILA2_TS_DEWT_122006.nc | 27-Oct-2024 17:29 | 448677 | ||
| PILA2_TS_DEWT_122007.nc | 27-Oct-2024 17:29 | 1029365 | ||
| PILA2_TS_DEWT_122008.nc | 27-Oct-2024 17:30 | 1029352 | ||
| PILA2_TS_DEWT_122009.nc | 27-Oct-2024 17:30 | 917232 | ||
| PILA2_TS_DEWT_122010.nc | 27-Oct-2024 17:30 | 3662082 | ||
| PILA2_TS_DEWT_122012.nc | 27-Oct-2024 17:30 | 449826 | ||
| PILA2_TS_DEWT_122013.nc | 27-Oct-2024 17:30 | 450401 | ||
| PILA2_TS_DEWT_122014.nc | 27-Oct-2024 17:30 | 450722 | ||
| PILA2_TS_DEWT_122015.nc | 27-Oct-2024 17:30 | 429911 | ||
| PILA2_TS_DEWT_122016.nc | 27-Oct-2024 17:30 | 429897 | ||
| PILA2_TS_DEWT_122017.nc | 27-Oct-2024 17:30 | 429897 | ||
| PILA2_TS_DEWT_122018.nc | 27-Oct-2024 17:30 | 450393 | ||
| PILA2_TS_DEWT_122019.nc | 27-Oct-2024 17:30 | 429058 | ||
| PILA2_TS_DEWT_122020.nc | 27-Oct-2024 17:30 | 450767 | ||
| PILA2_TS_DEWT_122021.nc | 27-Oct-2024 17:30 | 450573 | ||
| PILA2_TS_DEWT_122023.nc | 27-Oct-2024 17:31 | 429799 | ||
| PILA2_TS_DEWT_122025.nc | 01-Jan-2026 07:03 | 450227 | ||